This demonstration page uses our WeatherBlox Daily Observations layout. Learn more.

Left ArrowRight Arrow

31.84235, -102.49876

Hourly Observations for May 13, 2022

Temp ( °F °C ) Dew Point ( °F °C ) Humidity (%) Winds ( mph kmh ) Pressure ( in mb ) Visibility ( mi km ) Precip ( " mm )
12:53 am 00:53 Clear 81 27.2 57 13.9 44 44 SSW 12 19 29.77 1008 10 16 0.00 0.00
1:53 am 01:53 Clear 77 25 57 13.9 50 50 SSW 7 11 29.77 1008 10 16 0.00 0.00
2:53 am 02:53 Clear 75 23.9 56 13.3 52 52 WSW 6 9 29.75 1008 10 16 0.00 0.00
3:53 am 03:53 Clear 73 22.8 55 12.8 53 53 SW 6 9 29.75 1008 10 16 0.00 0.00
4:53 am 04:53 Clear 76 24.4 53 11.7 45 45 SSW 14 22 29.75 1008 10 16 0.00 0.00
5:53 am 05:53 Clear 73 22.8 53 11.7 50 50 WSW 7 11 29.76 1008 10 16 0.00 0.00
6:53 am 06:53 Clear 71 21.7 54 12.2 55 55 SW 8 13 29.77 1008 10 16 0.00 0.00
7:53 am 07:53 Sunny 73 22.8 54 12.2 51 51 W 5 7 29.79 1009 10 16 0.00 0.00
8:53 am 08:53 Sunny 76 24.4 55 12.8 48 48 W 3 6 29.81 1010 10 16 0.00 0.00
9:53 am 09:53 Sunny 80 26.7 55 12.8 42 42 Calm 29.82 1010 10 16 0.00 0.00
10:53 am 10:53 Sunny 84 28.9 54 12.2 36 36 VRB 3 6 29.82 1010 10 16 0.00 0.00
11:07 am 11:07 Mostly Sunny 84 28.9 53 11.7 34 34 W 5 7 29.76 1008 10 16 0.00 0.00
11:53 am 11:53 Partly Cloudy 87 30.6 50 10 28 28 Calm 29.81 1010 10 16 0.00 0.00
12:53 pm 12:53 Mostly Sunny 90 32.2 43 6.1 19 19 SW 6 9 29.80 1009 10 16 0.00 0.00
1:53 pm 13:53 Mostly Sunny 92 33.3 39 3.9 16 16 W 5 7 29.78 1009 10 16 0.00 0.00
2:53 pm 14:53 Sunny 94 34.4 42 5.6 17 17 Calm 29.76 1008 10 16 0.00 0.00
3:53 pm 15:53 Sunny 96 35.6 42 5.6 15 15 S 10 17 29.74 1007 10 16 0.00 0.00
4:53 pm 16:53 Sunny 96 35.6 42 5.6 15 15 undefined N/A 29.71 1006 10 16 0.00 0.00
5:53 pm 17:53 Sunny 95 35 40 4.4 15 15 S 6 9 29.71 1006 10 16 0.00 0.00
6:53 pm 18:53 Sunny 95 35 38 3.3 14 14 SW 9 15 29.70 1006 10 16 0.00 0.00
7:53 pm 19:53 Sunny 95 35 34 1.1 12 12 VRB 3 6 29.69 1006 10 16 0.00 0.00
8:53 pm 20:53 Clear 89 31.7 12 -11.1 5 5 NNE 7 11 29.71 1006 10 16 0.00 0.00
9:53 pm 21:53 Clear 85 29.4 9 -12.8 5 5 NNE 8 13 29.74 1007 10 16 0.00 0.00
10:53 pm 22:53 Clear 80 26.7 9 -12.8 6 6 NNE 8 13 29.77 1008 10 16 0.00 0.00
11:53 pm 23:53 Clear 74 23.3 9 -12.8 8 8 NE 9 15 29.78 1009 10 16 0.00 0.00

Powered by AerisWeather